{"data":{"norad_id":62185,"epoch":"2026-05-25T03:14:14.955648Z","epoch_age_seconds":63374,"freshness":"FRESH","line1":"1 62185U 24226A   26145.13489532 -.00000104  00000+0  42176-4 0  9990","line2":"2 62185  50.0060 351.7500 0056567  77.6463 283.0747 13.60152271 73579","mean_motion":13.60152271,"eccentricity":0.0056567,"inclination_deg":50.006,"raan_deg":351.75,"arg_perigee_deg":77.6463,"mean_anomaly_deg":283.0747,"bstar":4.2176e-5,"rev_number":7357,"period_min":105.87049925971,"perigee_km":993.20405985588,"apogee_km":1077.0734135756,"semimajor_km":7413.2757367158,"source":"CELESTRAK","updated_at":"2026-05-25T13:38:02.828252Z"}}